Lid_Strength_Index
2 5 6 8 12 14 16 13 10 11 10 7 6 7 8 7 9 12 2 0 1 1 -0 -1 -1 -1 -1 -1 -1 -1 -1 -1 -1 -1 -1 -1 -1 -1 -2 -2 -1 -2 -1 -1 -1 -1 -1 -1 -1
3 7 8 10 13 15 14 12 11 10 8 6 6 6 7 9 4 4 3 1 0 1 -0 -0 -1 -1 -1 -1 -1 -1 -1 -1 -1 -1 -1 -1 -1 -2 -2 -2 -1 -1 -1 -1 -1 -1 -1 -1 -1
6 6 10 12 14 16 14 11 10 8 6 7 7 5 6 7 4 3 1 0 -0 0 -0 -0 -1 -1 -1 -1 -1 -1 -1 -1 -1 -1 -1 -1 -2 -2 -2 -2 -2 -2 -1 -1 -1 -1 -1 -1 -1
7 10 11 12 14 11 10 10 8 8 7 6 6 8 5 3 3 2 1 0 0 0 -0 -1 -1 -1 -1 -1 -1 -1 -1 -1 -1 -1 -2 -2 -2 -2 -1 -2 -2 -2 -2 -1 -1 -1 -1 -1 -1
11 12 14 14 13 12 11 7 7 9 8 7 6 9 7 3 1 1 1 1 1 0 -0 -0 -1 -1 -1 -1 -1 -1 -1 -1 -1 -1 -1 -2 -2 -2 -2 -2 -2 -1 -1 -1 -1 -1 -1 -1 -1
11 13 16 17 15 13 12 8 8 8 7 7 7 8 7 2 2 1 0 1 0 1 -0 -0 -1 -1 -1 -1 -1 -1 -1 -1 -1 -1 -1 -2 -2 -2 -2 -2 -2 -1 -1 -1 -1 -1 -1 -1 -1
12 14 16 16 16 13 12 10 11 9 9 9 5 8 6 4 2 1 1 0 0 1 -0 -0 -0 -1 -1 -1 -1 -1 -1 -1 -1 -1 -1 -1 -1 -1 -2 -2 -2 -2 -1 -1 -1 -1 -1 -1 -1
12 14 17 17 14 15 11 11 13 11 11 7 7 9 9 4 2 1 1 1 0 0 0 0 -0 -0 -0 -0 -1 -1 -1 -1 -1 -1 -1 -1 -1 -1 -1 -1 -1 -2 -2 -2 -1 -1 -1 -1 -1
13 15 16 14 13 13 12 12 11 9 10 10 8 7 5 2 2 2 2 2 1 1 0 0 -0 -0 -0 -0 -0 -1 -1 -1 -1 -1 -1 -1 -1 -0 -1 -1 -1 -1 -1 -1 -1 -1 -2 -1 -1
13 15 14 13 12 13 12 11 10 10 10 8 6 4 3 3 3 3 3 3 3 2 3 1 -0 -0 -0 -1 -0 -1 -0 -1 -1 -0 -1 -0 -0 -0 -1 -1 -1 -1 -1 -1 -1 -1 -1 -1 -1
13 13 11 10 11 11 11 11 10 9 10 8 6 6 4 4 4 4 3 3 3 4 4 3 1 1 -0 0 0 2 2 0 -1 -0 -0 -1 -1 -0 -0 -1 -1 -1 -1 -1 -1 -1 -1 -1 -1
12 10 10 10 9 11 11 9 10 10 9 6 5 4 4 4 4 4 4 3 5 6 5 2 4 3 3 2 1 1 1 1 0 1 0 0 0 0 1 0 -1 -0 -1 -0 -1 -1 -1 -1 -1
10 11 10 10 10 11 9 10 10 9 7 6 6 4 5 4 4 3 3 5 6 6 5 5 5 4 2 0 0 1 0 0 0 1 0 -1 -0 0 -0 -0 0 0 -0 -0 -0 -0 -0 -0 -0
10 10 10 10 10 10 10 10 9 8 7 7 7 6 5 4 4 8 7 6 6 4 3 5 4 1 1 1 1 1 1 1 1 1 0 -0 -0 1 1 -0 -0 0 0 -0 -0 -0 -0 -0 -0
10 11 11 10 10 11 10 10 10 8 8 8 8 8 11 6 7 7 6 6 5 3 2 3 2 1 2 2 2 2 1 1 1 1 -0 -0 0 0 -0 -0 -0 -0 -1 -0 0 0 -0 0 0
11 13 14 11 10 10 10 14 10 8 9 9 8 8 8 9 10 7 5 6 5 3 3 2 1 2 2 2 2 2 2 2 2 1 0 -0 -0 -0 -1 -0 -0 -1 -1 -0 0 1 1 1 0
13 15 14 12 10 11 11 13 9 7 7 8 8 7 7 8 6 6 4 5 4 5 4 3 2 3 2 2 2 2 2 2 1 1 1 0 -0 -1 -1 -0 -0 -0 -0 1 1 1 1 1 1
15 15 14 14 11 11 12 13 9 8 8 8 8 7 5 6 7 4 3 3 3 4 4 2 2 2 2 2 2 3 3 2 2 1 0 -0 -0 -1 -1 -1 -0 -1 0 0 0 1 1 1 1
12 13 13 12 11 12 13 12 10 9 8 8 8 7 7 6 4 4 3 3 3 3 3 3 3 2 3 3 3 3 3 3 2 1 -0 0 -0 -0 -1 -0 -0 -1 0 0 1 1 2 1 1
12 14 14 12 11 12 13 12 11 9 9 8 8 7 7 6 6 5 5 4 4 3 3 3 3 2 3 3 2 2 3 2 1 1 1 0 -0 -1 -1 -0 0 -0 0 0 0 1 2 2 1
13 14 14 13 12 12 13 14 12 9 9 7 7 7 7 6 6 5 5 5 4 4 3 3 3 3 2 2 3 3 3 3 3 2 2 1 -0 -1 -1 -0 -0 0 -0 1 0 1 1 3 1
15 11 12 12 14 16 13 18 14 11 10 8 7 7 7 6 5 5 5 4 4 3 3 3 3 2 2 2 3 3 4 4 4 3 2 2 1 -0 -1 -1 -0 0 0 0 0 -0 0 1 3
12 11 12 12 15 15 15 16 15 11 11 10 8 7 6 6 6 5 4 4 3 3 3 2 2 2 2 1 2 2 3 3 3 3 3 3 2 1 0 -0 -0 0 0 0 0 0 0 1 2
11 13 14 15 16 18 15 15 16 13 11 9 8 7 6 6 6 5 5 4 4 2 2 2 2 3 2 2 2 3 4 3 3 3 3 3 3 2 1 1 0 1 0 0 0 0 0 1 1
12 15 20 19 19 19 15 15 15 10 9 8 8 7 6 6 6 6 5 5 4 4 3 3 2 2 2 2 2 2 3 3 3 3 2 4 3 3 3 2 1 1 1 0 0 1 1 1 1
14 15 18 20 21 18 14 17 14 9 8 8 7 7 7 7 6 6 5 5 4 3 3 3 3 4 3 3 3 2 3 3 3 2 2 3 3 3 2 2 2 2 1 1 1 1 2 0 1
13 15 14 16 18 19 17 14 10 9 9 9 8 8 8 7 7 6 6 5 4 4 4 4 3 3 3 3 3 3 2 2 2 3 3 3 3 2 1 1 2 2 2 2 1 2 2 1 1
11 11 16 17 20 21 17 16 15 12 11 9 9 9 8 7 7 7 5 5 4 5 4 4 4 4 3 3 3 3 3 2 1 2 3 3 3 2 2 2 2 2 3 3 3 3 3 2 2
12 14 14 15 16 19 20 17 11 11 10 9 9 8 7 7 7 6 5 5 4 4 5 5 4 4 4 3 3 3 3 3 2 2 2 3 3 2 2 2 2 2 2 3 3 3 3 3 3
11 13 14 18 17 16 16 16 9 9 8 8 7 7 7 7 6 6 5 5 5 5 5 5 5 4 4 4 4 4 4 3 3 3 3 2 3 2 2 2 2 2 2 2 2 3 3 2 2